User: anonymous   Login
Location: Mississauga
(43.5802°N, 79.6166°W)
Time: 03:38:12
(UTC-04:00)
Language:

Cosmos 1437 Rocket - Orbit

View from above orbital plane
View from above orbital plane
View from above satellite
View from above satellite

Ground track
Ground track

The orbit data is extracted from the following two-line orbital elements,

1 13771U 83003B   17296.90572716 +.00000612 +00000-0 +35440-4 0  9994
2 13771 081.1834 214.5281 0039777 300.0022 059.7258 15.10096943893216
Epoch (UTC): 23 October 2017 21:44:14
Eccentricity: 0.0039777
inclination: 81.1834°
perigee height: 508 km
apogee height: 563 km
right ascension of ascending node: 214.5281°
argument of perigee: 300.0022°
revolutions per day: 15.10096943
mean anomaly at epoch: 59.7258°
orbit number at epoch: 89321

The dashed part of the orbit path shows where the satellite is in the earth's shadow,  

DLR